COSMOS 252 DEB, 3569

Orbit data source: Space-Track

COSMOS 252 DEB, 3569 is space debris in LEO originally from a launch on Fri, 01 Nov 1968 UTC launched from the Tyuratam Missile And Space Complex (TTMTR). Debris objects in space refer to the collection of defunct objects orbiting the Earth. Examples of debris include non-operational satellites, rocket bodies, and fragments generated from explosions, collisions, or faulty payload assembly.

Loading next visibility...
Identifier
3569, 1968-097V
Orbit
LEO
Country
Flag of CISCIS
Related business
Manufacturer
Unknown
Mission
Spacecraft
Bus & Motor
Unknown
Mass
Unknown
Launch date (UTC)
1968-11-01 (57 years ago)
Launch vehicle
Unknown
Launch site
Tyuratam Missile And Space Complex (TTMTR)
Object type
Payload
Rocket body
Debris
Shape & HBR
Unknown
Radar Cross Section
Small (<0.1 m²)

Expand to show TLE details & history
Last TLE update: 16 hours ago

TLE from 16 hours ago
0 COSMOS 252 DEB
1 03569U 68097V   25260.87797147  .00005465  00000-0  10265-2 0  9994
2 03569  62.2890  93.9006 0576155  70.3313 295.8944 13.93957083780841
Epoch: 2025-09-17T21:04Z
TLE epoch observation values (Epoch: 2025-09-17T21:04:16.734Z)
Latitude
-0.00004°
Longitude
140.78325°
Altitude
753.31 km
Speed
7.562 km/s
True Right ascension
06h 15m 36s
True Declination
0° 00' 00"
Sunlit
Object was in daylight at epoch
Visualization orbit readout
Latitude
Unknown
Longitude
Unknown
Altitude
Unknown
Speed
Unknown
Apparent Right ascension
Unknown
Apparent Declination
Unknown
Sunlit
N/A
Visualization observer readout
Local Sidereal Time
06:01:04
Azimuth
Unknown
Elevation
Unknown
Doppler factor
Unknown
Orbital elements
Apogee altitude
1,333.86 km
Perigee altitude
493.61 km
Semi-major axis
7,291.872 km
Eccentricity
0.05762
Inclination
62.289°
RAAN
93.9006°
Arg. of periapsis
70.3313°
True anomaly
289.77411°
Mean anomaly
295.8944°
Eccentric anomaly
292.85239°
Mean motion
3.48566 °/min
Orbital period
103.28 mins
BSTAR
0.0010265
Loading maneuver chart data...
Computing Atmospheric mass density...

Documentation

Showing up to 5 results
|